Flag Weather past 2 weeks in Munich, Bavaria, Germany

Now
34 °F

Fog.


Feels Like: 26 °F
Forecast: 36 / 46 °F
Wind: 9 mph from East

Location: Oberpfaffenhofen

Current Time: Nov 28, 2014 at 5:25:49 PM

Latest Report: Nov 28, 2014 at 4:50 PM


Visibility: 0 mi

Pressure: 29.83 "Hg

Humidity: 93%

Dew point: 32 °F

Location of MunichLocation

Historic Weather in Munich — Graph

°F

Munich temperature yesterday

Maximum temperature yesterday: 37 °F (at 11:20 AM)
Minimum temperature yesterday: 36 °F (at 6:50 AM)
Average temperature yesterday: 36 °F

Past Weeks' High & Low Weather Summary

 TemperatureHumidityPressure
High86 °F (Nov 15, 8:20 AM)100% (Nov 14, 11:20 AM)30.27 "Hg (Nov 14, 11:20 AM)
Low28 °F (Nov 17, 7:20 AM)17% (Nov 15, 8:20 AM)29.65 "Hg (Nov 16, 11:20 AM)
Average40 °F91%29.96 "Hg
* Reported Nov 13 4:20 PM — Nov 28 4:20 PM, Munich, Weather by CustomWeather, © 2014

Note: Actual official high and low records may vary slightly from our data, if they occured in-between our weather recording intervals... More about our weather records

Advertising

Munich weather history for previous 24 hours

 ConditionsComfort  
Time TempWeatherWind HumidityBarometerVisibility
4:20 PM
Nov 28
34 °FFog.7 mph93%29.83 "Hg1 mi
3:50 PM34 °FFog.9 mph93%29.83 "Hg1 mi
3:20 PM34 °FFog.9 mph93%29.83 "Hg1 mi
2:50 PM34 °FFog.10 mph100%29.83 "Hg1 mi
2:20 PM34 °FFog.9 mph100%29.80 "Hg1 mi
1:50 PM34 °FFog.8 mph100%29.80 "Hg1 mi
1:20 PM34 °FFog.7 mph100%29.83 "Hg1 mi
12:50 PM34 °FFog.9 mph100%29.83 "Hg1 mi
12:20 PM34 °FFog.7 mph93%29.83 "Hg1 mi
11:50 AM34 °FFog.6 mph100%29.83 "Hg1 mi
11:20 AM34 °FFog.9 mph93%29.86 "Hg1 mi
10:50 AM34 °FFog.10 mph93%29.86 "Hg1 mi
10:20 AM34 °FFog.8 mph93%29.86 "Hg1 mi
9:50 AM34 °FFog.8 mph93%29.83 "Hg1 mi
9:20 AM34 °FFog.8 mph93%29.83 "Hg1 mi
8:50 AM34 °FFog.6 mph93%29.83 "Hg1 mi
8:20 AM34 °FFog.9 mph93%29.83 "Hg1 mi
7:50 AM34 °FFog.6 mph93%29.83 "Hg1 mi
7:20 AM34 °FFog.8 mph93%29.83 "Hg1 mi
6:50 AM34 °FFog.8 mph100%29.80 "Hg1 mi
7:50 PM
Nov 27
36 °FFog.No wind100%29.80 "Hg1 mi
7:20 PM36 °FFog.5 mph100%29.80 "Hg1 mi
6:50 PM36 °FFog.6 mph100%29.80 "Hg1 mi
6:20 PM36 °FFog.3 mph100%29.80 "Hg1 mi
5:50 PM36 °FFog.3 mph100%29.80 "Hg1 mi
5:20 PM36 °FFog.3 mph100%29.80 "Hg1 mi
Weather by CustomWeather, © 2014

See weather overviewHow to use our weather pages